Trinidad, CO

7:17 PM MDT on April 28, 2017 (GMT -0600)
Stokes

Weather History for KTAD - October, 2012

Change the Weather History Date:

Thursday, October 11, 2012

  Actual Average Record
Temperature  
Mean Temperature 64 °F 54 °F  
Max Temperature 82 °F 70 °F 88 °F (2015)
Min Temperature 45 °F 38 °F 23 °F (1969)
Degree Days  
Heating Degree Days 1 11  
Month to date heating degree days 127 103  
Since 1 July heating degree days 203 213  
Cooling Degree Days 0 0  
Month to date cooling degree days 0 0  
Year to date cooling degree days 1175  
Growing Degree Days 14 (Base 50)    
Moisture  
Dew Point 30 °F    
Average Humidity 37    
Maximum Humidity 60    
Minimum Humidity 13    
Precipitation  
Precipitation T in 0.03 in 0.66 in (1969)
Month to date precipitation T  
Sea Level Pressure  
Sea Level Pressure 29.94 in    
Wind  
Wind Speed 8 mph (NW)    
Max Wind Speed 23 mph    
Max Gust Speed 33 mph    
Visibility 10 miles    
Events      
T = Trace of Precipitation, MM = Missing Value Source: NWS Daily Summary

Daily Weather History Graph

Daily Weather History Graph

Search for Another Location

Airport or City:

Trip Planner

Search our weather history database for the weather conditions in past years. The results will help you decide how hot, cold, wet, or windy it might be!

Date:

Astronomy

Oct. 11, 2012 Rise Set
Actual Time 7:02 AM MDT 6:25 PM MDT
Civil Twilight 6:35 AM MDT 6:51 PM MDT
Nautical Twilight 6:05 AM MDT 7:21 PM MDT
Astronomical Twilight 5:35 AM MDT 7:51 PM MDT
Moon 2:48 AM MDT (10/11) 3:58 PM MDT (10/11)
Length of Visible Light 12h 15m
Length of Day
11h 23m
Waning Crescent, 18% of the Moon is Illuminated
Oct 11
Waning Crescent
Oct 15
New
Oct 21
First Quarter
Oct 29
Full
Nov 6
Last Quarter

Hourly Weather History & Observations

Time (MDT) Temp. Dew Point Humidity Pressure Visibility Wind Dir Wind Speed Gust Speed Precip Events Conditions
12:54 AM 55.9 °F 32.0 °F 40% 29.88 in 10.0 mi WSW 13.8 mph - N/A   Clear
1:54 AM 57.0 °F 30.0 °F 36% 29.86 in 10.0 mi WSW 16.1 mph - N/A   Clear
2:54 AM 55.0 °F 30.0 °F 38% 29.85 in 10.0 mi West 10.4 mph - N/A   Clear
3:54 AM 51.1 °F 28.9 °F 43% 29.87 in 10.0 mi WNW 10.4 mph - N/A   Clear
4:54 AM 48.9 °F 28.9 °F 46% 29.88 in 10.0 mi WNW 9.2 mph - N/A   Clear
5:54 AM 48.9 °F 28.0 °F 44% 29.93 in 10.0 mi West 9.2 mph - N/A   Clear
7:54 AM 48.9 °F 28.9 °F 46% 29.98 in 10.0 mi West 11.5 mph - N/A   Clear
8:54 AM 59.0 °F 28.9 °F 32% 29.96 in 10.0 mi West 10.4 mph - N/A   Clear
9:54 AM 66.9 °F 30.0 °F 25% 29.95 in 10.0 mi Calm Calm - N/A   Clear
10:54 AM 73.9 °F 28.9 °F 19% 29.93 in 10.0 mi Calm Calm - N/A   Clear
11:54 AM 77.0 °F 27.0 °F 16% 29.91 in 10.0 mi Variable 3.5 mph - N/A   Clear
12:54 PM 79.0 °F 25.0 °F 14% 29.88 in 10.0 mi ENE 8.1 mph - N/A   Clear
1:54 PM 81.0 °F 25.0 °F 13% 29.85 in 10.0 mi SE 8.1 mph - N/A   Clear
2:54 PM 80.1 °F 25.0 °F 13% 29.84 in 10.0 mi Calm Calm - N/A   Clear
4:54 PM 77.0 °F 25.0 °F 15% 29.87 in 10.0 mi North 5.8 mph - N/A   Mostly Cloudy
5:54 PM 75.9 °F 28.0 °F 17% 29.88 in 10.0 mi Calm Calm - 0.00 in   Mostly Cloudy
6:54 PM 71.1 °F 30.9 °F 23% 29.94 in 10.0 mi ENE 15.0 mph 25.3 mph N/A   Scattered Clouds
7:31 PM 66.2 °F 35.6 °F 32% 30.16 in 10.0 mi North 17.3 mph - N/A   Overcast
7:54 PM 66.0 °F 36.0 °F 33% 30.00 in 10.0 mi NNE 19.6 mph 24.2 mph N/A   Overcast
8:54 PM 62.1 °F 37.9 °F 41% 30.01 in 10.0 mi ENE 17.3 mph 25.3 mph N/A   Scattered Clouds
9:54 PM 57.0 °F 37.0 °F 47% 30.07 in 10.0 mi NW 9.2 mph - N/A   Scattered Clouds
10:54 PM 50.0 °F 34.0 °F 54% 30.12 in 10.0 mi NNW 11.5 mph - N/A   Clear